Regional Weather Roundup
Issued by NWS Grand Forks, ND

Home | Current Version | Previous Version | Graphics & Text | Print | Product List | Glossary On
Versions: 1 2 3 4 5 6 7 8 9 10 11 12 13 14 15 16 17 18 19 20 21 22 23 24 25 26 27 28 29 30 31 32 33 34 35 36 37 38 39 40 41 42 43 44 45 46 47 48 49 50
000
ASUS43 KFGF 221910
RWRFGF
PRAIRIE TO PINES  WEATHER ROUNDUP
NATIONAL WEATHER SERVICE EASTERN NORTH DAKOTA/GRAND FORKS ND
200 PM CDT WED OCT 22 2014

 **SATELLITE DATA USED TO AUGMENT SKY COVER AT AUTOMATED STATIONS**
 *****  WEATHER ACROSS EASTERN NORTH DAKOTA  *****

CITY           SKY/WX    TMP DP  RH WIND       PRES   REMARKS
GRAND FORKS    CLOUDY    62  47  57 S17G31    29.80F
GRAND FRKS AFB CLOUDY    65  49  55 S20       29.79F
GRAND FRKS NWS   N/A     61 N/A N/A S22         N/A
DEVILS LAKE    CLOUDY    57  45  62 W9        29.74R
FARGO          CLOUDY    66  47  50 S20G26    29.85F
WAHPETON ARPT  CLOUDY    66  45  45 S18G28    29.88F
$$

 ***** WEATHER ACROSS CENTRAL AND WESTERN NORTH DAKOTA  *****

CITY           SKY/WX    TMP DP  RH WIND       PRES   REMARKS
BISMARCK       CLOUDY    63  43  48 W15       29.85F
MINOT          CLOUDY    61  42  49 SW18G26   29.76S
JAMESTOWN      LGT RAIN  57  49  74 W12       29.84F
MINOT AFB      PTSUNNY   60  44  55 W23G29    29.75S
GARRISON         N/A     62  42  47 W15G22    29.79F
WILLISTON      CLOUDY    58  41  53 W21G28    29.81R
DICKINSON      SUNNY     62  36  37 W22G30    29.85F
HETTINGER      SUNNY     62  34  35 W21G28    29.92F
$$

 *****  OTHER AIRPORT OBSERVATIONS IN OUR AREA  *****

CITY           SKY/WX    TMP DP  RH WIND       PRES   REMARKS
WALHALLA         N/A     63  48  59 S10       29.72R
GRAFTON AIRPOR MOCLDY    63  46  55 S22       29.76F
VALLEY CITY AR LGT RAIN  55  55 100 S10       29.83F
CANDO          MOCLDY    59  46  63 W13       29.74S
CAVALIER APRT  FAIR      63  46  55 S15G25    29.74F HAZE
GWINNER        MOCLDY    64  48  55 SW14G20   29.87S
ROLLA          FAIR      59  45  58 SW12G17   29.72F
 ***** THE ABOVE OBSERVATIONS ARE NON NWS ARE NOT QUALITY
       CONTROLLED AND MAY MIS-REPORT RAIN FOR SNOW...
$$

  *****  WEATHER ACROSS NORTHERN MINNESOTA  *****

CITY           SKY/WX    TMP DP  RH WIND       PRES   REMARKS
FLAG ISLAND    PTSUNNY   54  45  71 S22       29.84F
WARROAD        PTSUNNY   63  48  59 S10G18    29.84F
ROSEAU         PTSUNNY   63  48  59 S22G29    29.82F
HALLOCK        PTSUNNY   64  46  52 S22G30    29.77S
THF RVR FALLS  PTSUNNY   63  45  51 S23       29.83F
BAUDETTE       PTSUNNY   62  44  51 S18G30    29.88F
WASKISH        MOSUNNY   63  45  51 SE13G18   29.91F
CROOKSTON      MOSUNNY   63  46  55 S29       29.84S
STEPHEN NDAWN    N/A     64  48  55 S21         N/A
GREENBUSH NDAW   N/A     64  46  52 S20         N/A
$$
  *****  WEATHER ACROSS CENTRAL AND WEST MINNESOTA  *****

CITY           SKY/WX    TMP DP  RH WIND       PRES   REMARKS
FOSSTON        PTSUNNY   61  43  51 S20G26    29.88S
BEMIDJI        PTSUNNY   60  43  54 S20       29.92F
PARK RAPIDS    PTSUNNY   59  42  53 S20G29    29.94F
ELBOW LAKE     FAIR      62  46  55 S20G25    29.92S
WADENA         PTSUNNY   57  43  58 S15G23    29.95F
DETROIT LAKES  CLOUDY    59  45  58 S18G26    29.92S
MOORHEAD       CLOUDY    64  46  52 S17G28    29.87F
FERGUS FALLS   PTSUNNY   63  43  48 SE22      29.92F
MORRIS MN      CLOUDY    64  48  55 S18G28    29.92S
STAPLES        MOSUNNY   57  41  54 SE14G21   29.97F
$$
  *****  WEATHER ELSEWHERE ACROSS MINNESOTA  *****

CITY           SKY/WX    TMP DP  RH WIND       PRES   REMARKS
DULUTH         MOSUNNY   56  38  50 SE13      30.10F
INTRNTL FALLS  PTSUNNY   61  42  49 S9G22     29.95F
ELY            SUNNY     57  36  44 S15G22    30.07F
CLOQUET        PTSUNNY   55  37  50 SE10G16   30.09F
WHEATON        CLOUDY    66  48  52 S15G23    29.91S
BRAINERD       SUNNY     56  41  57 S20G29    30.02F
HIBBING        PTSUNNY   59  39  47 S17G32    30.06F
ALEXANDRIA     PTSUNNY   60  44  55 S24G33    29.96F
SAINT CLOUD    MOSUNNY   61  41  47 SE21      30.04F
MINNEAPOLIS    CLOUDY    56  40  55 SE21G31   30.12F
$$

  *****  WEATHER ACROSS SOUTH DAKOTA  *****

CITY           SKY/WX    TMP DP  RH WIND       PRES   REMARKS
SIOUX FALLS    PTSUNNY   70  52  52 S21G29    29.94F
BROOKINGS      NOT AVBL
WATERTOWN      PTSUNNY   66  51  58 SW21      29.90F
HURON          RAIN      55  53  93 NW13      29.91R FOG
SISSETON         N/A     68  51  54 SW17G23   29.87F
ABERDEEN       LGT RAIN  57  52  83 NW9       29.87F
MITCHELL       HVY RAIN  57  54  89 W9        29.95R FOG
PIERRE         CLOUDY    61  47  59 NW12      29.93F
MOBRIDGE       CLOUDY    59  47  64 W12       29.89F
RAPID CITY     SUNNY     64  29  26 N8        30.00F
$$

  *****  SOME WEATHER IN NEARBY STATES *****

CITY           SKY/WX    TMP DP  RH WIND       PRES   REMARKS
GLASGOW MT     SUNNY     61  34  36 W23G31    29.85F
GREAT FALLS MT SUNNY     56  32  40 SW22G35   29.90F
CHEYENNE WY    PTSUNNY   63  34  33 SW15      30.10F
SCOTTSBLUFF NE SUNNY     64  31  28 NW10G23   30.07F
OMAHA NE       MOSUNNY   73  51  46 S22       30.04F
DES MOINES IA  MOSUNNY   65  46  50 S18       30.16F
DAVENPORT IA   SUNNY     57  38  48 SE12      30.28F
CHICAGO IL     MOSUNNY   55  38  52 E7        30.32F
EAU CLAIRE WI  SUNNY     57  36  45 SE15      30.20F
LA CROSSE WI   SUNNY     59  37  44 S13       30.23F
$$

  *****  SOME NATIONAL WEATHER *****

CITY           SKY/WX    TMP DP  RH WIND       PRES   REMARKS
LA GUARDIA NY  CLOUDY    57  48  72 N16G29    29.85F
RALEIGH NC     MOSUNNY   66  41  40 N9        29.97F
ATLANTA GA     SUNNY     68  40  35 N8        30.07F
NEW ORLEANS LA SUNNY     78  54  43 N14       30.04F
OKLAHOMA CITY  PTSUNNY   79  58  48 S13       30.12F
ALBUQUERQUE NM MOSUNNY   68  46  45 CALM      30.19F
SALT LAKE CITY MOSUNNY   59  30  33 VRB5      30.20S
LOS ANGELES CA NOT AVBL
BOISE ID       PTSUNNY   60  35  39 SE14      30.11R
SEATTLE WA     RAIN      56  54  93 S7        29.74S FOG
$$

*** WEATHER ACROSS MANITOBA...SASKATCHEWAN AND ONTARIO ***
                ***ONTARIO***

CITY           SKY/WX    TMP DP  RH WIND       PRES   REMARKS
GERALDTON      MOSUNNY   48  36  61 S17G23    30.21F
THUNDER BAY    MOSUNNY   52  39  62 S9        30.20F
SIOUX LOOKOUT  MOSUNNY   59  41  51 S14G25    29.98F
TORONTO        MOSUNNY   55  41  58 N10       30.23F
BIG TROUT LK   SUNNY     55  41  58 S9G17     29.86F
PICKLE LAKE    MOSUNNY   57  39  51 S16G22    29.98F
DRYDEN         PTSUNNY   59  41  51 SE22G28   29.93F
KENORA         NOT AVBL
$$
                *** MANITOBA***

CITY           SKY/WX    TMP DP  RH WIND       PRES   REMARKS
BRANDON        CLOUDY    61  46  59 W18G24    29.67S
DAUPHIN        MOSUNNY   61  48  63 SW9       29.60S
ISLAND LAKE    PTSUNNY   59  43  55 S9        29.68F
PILOT MOUND      N/A     64  45  48 SW12        N/A
THE PAS        PTSUNNY   50  45  81 NW8       29.58R
THOMPSON       PTSUNNY   50  45  81 E5        29.62F
WINNIPEG       PTSUNNY   63  46  55 S21G28    29.71F
LYNN LAKE      CLOUDY    45  41  87 N7        29.68R
CHURCHILL      FOG       37  37 100 N10       29.74S VSB 1/4
$$
                ***SASKATCHEWAN***

CITY           SKY/WX    TMP DP  RH WIND       PRES   REMARKS
ESTEVAN        MOSUNNY   57  45  62 W21G28    29.73F
KINDERSLEY     MOSUNNY   57  39  51 W7        29.77S
LLOYDMINSTER   MOSUNNY   59  36  41 SE3       29.74S
PRINCE ALBERT  LGT RAIN  48  46  93 W8        29.69R
REGINA         CLOUDY    52  46  82 W16       29.71S
YORKTON        MOSUNNY   61  48  63 W13       29.62F
N. BATTLEFORD  SUNNY     52  41  66 W6        29.76S
LA RONGE       PTSUNNY   50  46  87 NW6       29.69F
SASKATOON      PTSUNNY   50  45  81 NW7       29.72F
SWIFT CURRENT  MOSUNNY   54  43  66 W16G24    29.78S
$$
NOTE: THESE ARE AUTOMATED STATIONS WITH LIMITED QUALITY CONTROL
      "FAIR" INDICATES FEW OR NO CLOUDS BELOW 12,000 FEET WITH NO
      SIGNIFICANT WEATHER AND/OR OBSTRUCTIONS TO VISIBILITY.
      SKY/WX - SKY CONDITION AND SIGNIFICANT WEATHER.
      TMP - AIR TEMPERATURE.    DP   - DEWPOINT TEMPERATURE.
      RH  - RELATIVE HUMIDITY.  PRES - PRESSURE.
      HX  - HEAT INDEX.         WCI  - WIND CHILL INDEX.
$



USA.gov is the U.S. government's official web portal to all federal, state and local government web resources and services.